rotation,crop,Date,soil water storage in the profile(0-180cm),Precipitation,Irrigation,pan ET,unites (mm),Comments
SpCSpWS rotation,winter wheat,2005.10.10,343.8,2.2,0,34.7,,"Soil water content was measured by neutron probe. Precipitation, irrigation and Pan ET was the sum between intervals"
SpCSpWS rotation,winter wheat,2005.11.02,343.3462783,0,75,91.4,,
SpCSpWS rotation,winter wheat,2005.11.10,337.3738813,0,0,26.6,,
SpCSpWS rotation,winter wheat,2005.11.21,353.4920893,0,0,15.4,,
SpCSpWS rotation,winter wheat,2005.12.04,380.2751233,0,0,38.9,,
SpCSpWS rotation,winter wheat,2006.03.05,337.4785892,2.2,0,148.9,,
SpCSpWS rotation,winter wheat,2006.03.15,350.3013446,0,0,49.8,,
SpCSpWS rotation,winter wheat,2006.03.24,329.1159985,0,0,58.9,,
SpCSpWS rotation,winter wheat,2006.04.06,340.3719122,0,75,80,,
SpCSpWS rotation,winter wheat,2006.04.15,339.5707877,10.5,0,37.7,,
SpCSpWS rotation,winter wheat,2006.04.24,297.9913053,0,0,55.1,,
SpCSpWS rotation,winter wheat,2006.05.04,299.2218957,0,75,50.2,,
SpCSpWS rotation,winter wheat,2006.05.15,277.0156059,12.2,0,53.4,,
SpCSpWS rotation,winter wheat,2006.05.24,268.6023175,41.8,0,44.7,,
SpCSpWS rotation,winter wheat,2006.06.04,276.2031138,29.5,0,49.6,,
SpCSpWS rotation,winter wheat,2006.06.13,294.1814027,24,0,85,,
SpCSpWS rotation,winter wheat,2009.10.03,461.0190765,0,75,47.5,,
SpCSpWS rotation,winter wheat,2009.10.13,462.2019466,0,0,39.1,,
SpCSpWS rotation,winter wheat,2009.10.23,486.0166012,0,0,71.4,,
SpCSpWS rotation,winter wheat,2009.11.04,451.7530618,0,0,25.6,,
SpCSpWS rotation,winter wheat,2009.11.23,466.5432818,0.2,0,12.7,,
SpCSpWS rotation,winter wheat,2009.12.04,480.9053888,41.1,0,6.6,,
SpCSpWS rotation,winter wheat,2010.03.05,449.1615241,5.6,0,141.1,,
SpCSpWS rotation,winter wheat,2010.03.16,448.2919241,6.2,0,34.1,,
SpCSpWS rotation,winter wheat,2010.03.25,466.6788813,0.7,0,47.5,,
SpCSpWS rotation,winter wheat,2010.04.07,440.4372978,1.1,0,75.6,,
SpCSpWS rotation,winter wheat,2010.04.18,477.5169548,8.6,75,45.3,,
SpCSpWS rotation,winter wheat,2010.04.28,428.593756,3.8,0,49.3,,
SpCSpWS rotation,winter wheat,2010.05.08,400.7859167,3.5,0,73.7,,
SpCSpWS rotation,winter wheat,2010.05.19,461.8987004,2.3,75,69.3,,
SpCSpWS rotation,winter wheat,2010.05.28,367.7869548,1.2,0,55.7,,
SpCSpWS rotation,winter wheat,2010.06.08,334.2218757,3.1,0,69.7,,
SpCSpWS rotation,winter wheat,2010.06.19,422.6671188,2.3,0,80.5,,
WS rotation,winter wheat,2002.10.10,406.7484,0,0,2.714285714,,
WS rotation,winter wheat,2003.03.30,366.1663823,38.3,75,126.1,,
WS rotation,winter wheat,2003.04.05,282.178032,5.3,75,16,,
WS rotation,winter wheat,2003.05.02,330.1480475,46.2,75,120.6,,
WS rotation,winter wheat,2003.05.11,340.7524513,12.6,0,24,,
WS rotation,winter wheat,2003.06.05,368.2462693,63.6,0,111.2,,
WS rotation,winter wheat,2003.06.16,384.7376277,12.6,0,87.2,,
WS rotation,winter wheat,2003.10.17 ,453.8438046,84.7,0,41.8,,
WS rotation,winter wheat,2003.11.02,454.4091889,1.9,75,61.2,,
WS rotation,winter wheat,2004.04.17,371.2756562,61.4,75,440.8,,
WS rotation,winter wheat,2004.04.21,326.4054524,0,0,19.9,,
WS rotation,winter wheat,2004.04.29,358.3574761,21.2,0,27.7,,
WS rotation,winter wheat,2004.05.10,320.1894901,5,75,50.1,,
WS rotation,winter wheat,2004.05.20,327.6458098,32.7,0,48.7,,
WS rotation,winter wheat,2004.05.30,293.2694,3.7,0,53.2,,
WS rotation,winter wheat,2004.06.10,261.3674213,3.2,0,71,,
WS rotation,winter wheat,2004.10.12,356.513521,0,0,25.2,,
WS rotation,winter wheat,2004.10.22,338.9872913,0,0,49.7,,
WS rotation,winter wheat,2004.11.02,359.2254953,4.2,75,23.5,,
WS rotation,winter wheat,2004.11.11,355.2125447,6.2,0,16,,
WS rotation,winter wheat,2005.01.14,356.6758147,11.9,0,60,,
WS rotation,winter wheat,2005.03.03,338.5089741,8,0,68.7,,
WS rotation,winter wheat,2005.03.14,335.4498884,0,0,35.9,,
WS rotation,winter wheat,2005.03.24,341.5125487,0,0,56.2,,
WS rotation,winter wheat,2005.04.02,312.2475574,0,75,50.7,,
WS rotation,winter wheat,2005.04.13,356.368065,10.6,0,62.4,,
WS rotation,winter wheat,2005.04.23,315.5780723,0,0,63.1,,
WS rotation,winter wheat,2005.05.03,354.454121,0,75,63.1,,
WS rotation,winter wheat,2005.05.13,272.2975671,29.7,0,54.2,,
WS rotation,winter wheat,2005.05.23,302.8855873,32.5,0,53.2,,
WS rotation,winter wheat,2005.06.03,259.7143244,1.1,0,67,,
WS rotation,winter wheat,2005.06.13,255.8419599,10,0,71.2,,
WS rotation,winter wheat,2005.10.04,308.1769278,6,0,21.9,,
WS rotation,winter wheat,2005.11.02,383.7796723,2.2,75,120.4,,
WS rotation,winter wheat,2005.11.10,366.7078753,0,0,26.6,,
WS rotation,winter wheat,2005.11.21,356.1960916,0,0,15.4,,
WS rotation,winter wheat,2005.12.04,373.7185255,0,0,38.9,,
WS rotation,winter wheat,2006.01.05,323.4416254,1,0,43.6,,
WS rotation,winter wheat,2006.02.05,312.1317269,0.8,0,33.1,,
WS rotation,winter wheat,2006.03.05,296.7185453,0.4,0,72.2,,
WS rotation,winter wheat,2006.03.15,315.2905037,0,0,49.8,,
WS rotation,winter wheat,2006.03.24,294.0092042,0,0,58.9,,
WS rotation,winter wheat,2006.04.06,322.4570539,0,75,80,,
WS rotation,winter wheat,2006.04.15,303.9823692,10.5,0,37.7,,
WS rotation,winter wheat,2006.04.24,269.4934402,0,0,55.1,,
WS rotation,winter wheat,2006.05.04,286.6485709,0,75,50.2,,
WS rotation,winter wheat,2006.05.15,252.8529153,12.2,0,53.4,,
WS rotation,winter wheat,2006.05.24,249.1217774,41.8,0,44.7,,
WS rotation,winter wheat,2006.06.04,277.3450042,29.5,0,49.6,,
WS rotation,winter wheat,2006.06.13,297.819622,24,0,85,,
WS rotation,winter wheat,2006.10.25,354.597173,0.6,0,29.2,,
WS rotation,winter wheat,2006.11.04,340.6900142,0,75,34.3,,
WS rotation,winter wheat,2006.11.14,315.6123615,0,0,29.5,,
WS rotation,winter wheat,2006.11.28,357.4445643,17.1,0,14.2,,
WS rotation,winter wheat,2007.03.08,356.5151318,57.4,0,157.3,,
WS rotation,winter wheat,2007.03.18,382.3853665,0,0,26.5,,
WS rotation,winter wheat,2007.03.25,312.9558648,0,0,19.9,,
WS rotation,winter wheat,2007.04.15,454.3857074,0.3,75,110.6,,
WS rotation,winter wheat,2007.04.23,360.8774004,0,0,39.2,,
WS rotation,winter wheat,2007.05.05,413.5471551,16.4,75,76.1,,
WS rotation,winter wheat,2007.05.13,335.9642528,6.4,0,39,,
WS rotation,winter wheat,2007.05.25,360.3028402,41.8,0,82.1,,
WS rotation,winter wheat,2007.06.05,397.9489516,0,0,60.3,,
WS rotation,winter wheat,2007.06.15,391.5902074,0,0,97.8,,
WS rotation,winter wheat,2007.11.09,461.3097255,8.1,75,94.7,,
WS rotation,winter wheat,2008.03.13 ,430.5466748,4.2,0,246.6,,
WS rotation,winter wheat,2008.04.15,440.9053016,30.3,75,155.2,,
WS rotation,winter wheat,2008.04.26,422.2232992,26.7,0,51.3,,
WS rotation,winter wheat,2008.05.06,375.7893853,0.6,75,48,,
WS rotation,winter wheat,2008.05.16,373.9920929,36.2,0,33.8,,
WS rotation,winter wheat,2008.05.24,394.8564029,25.1,0,46.4,,
WS rotation,winter wheat,2008.06.26,352.4057532,91,0,202.2,,
WS rotation,winter wheat,2008.10.24,483.1982122,10.2,0,35.6,,
WS rotation,winter wheat,2008.11.03,465.029624,0,75,39.8,,
WS rotation,winter wheat,2008.11.13,442.2712343,0,0,26.6,,
WS rotation,winter wheat,2008.11.24,483.4616684,0.2,0,20.6,,
WS rotation,winter wheat,2008.12.05,503.3360691,0,0,36.8,,
WS rotation,winter wheat,2009.03.04,447.4978073,5.7,0,151.9,,
WS rotation,winter wheat,2009.03.15,439.5094427,2.5,0,63,,
WS rotation,winter wheat,2009.03.25,462.8681487,5.4,0,54.1,,
WS rotation,winter wheat,2009.04.03,432.5055764,0.5,75,37,,
WS rotation,winter wheat,2009.04.13,440.8189027,1.6,0,59.9,,
WS rotation,winter wheat,2009.04.23,431.2104701,5.8,0,44.5,,
WS rotation,winter wheat,2009.05.05,505.7531592,0.6,75,68.7,,
WS rotation,winter wheat,2009.05.15,445.338985,34.2,0,36.7,,
WS rotation,winter wheat,2009.05.25,408.8715169,6.4,0,67.6,,
WS rotation,winter wheat,2009.06.04,457.797467,0.7,0,77.4,,
WS rotation,winter wheat,2009.06.18,363.510542,44.9,0,86,,
WS rotation,winter wheat,2009.10.13,485.232209,0,0,39.1,,
WS rotation,winter wheat,2009.10.23,507.0432939,0,0,71.4,,
WS rotation,winter wheat,2009.11.04,473.3791015,0.2,75,25.6,,
WS rotation,winter wheat,2009.11.23,481.5924629,41.1,0,12.7,,
WS rotation,winter wheat,2009.12.04,489.8720572,0,0,6.6,,
WS rotation,winter wheat,2010.03.05,464.235062,5.6,0,141.1,,
WS rotation,winter wheat,2010.03.16,454.1657178,6.2,0,34.1,,
WS rotation,winter wheat,2010.03.25,464.9349114,0.7,0,47.5,,
WS rotation,winter wheat,2010.04.07,445.02775,1.1,75,75.6,,
WS rotation,winter wheat,2010.04.18,505.4543381,8.6,0,45.3,,
WS rotation,winter wheat,2010.04.28,473.0241178,3.8,0,49.3,,
WS rotation,winter wheat,2010.05.08,416.0460013,3.5,75,73.7,,
WS rotation,winter wheat,2010.05.19,471.5331555,2.3,0,69.3,,
WS rotation,winter wheat,2010.05.28,405.8162246,1.2,0,55.7,,
WS rotation,winter wheat,2010.06.08,340.5642779,3.1,0,69.7,,
WS rotation,winter wheat,2010.10.17,425.1496009,0,0,41.7,,
WS rotation,winter wheat,2010.10.26,502.1892705,4.1,0,12.6,,
WS rotation,winter wheat,2010.11.07,467.7317009,0,0,39.6,,
WS rotation,winter wheat,2010.11.19,440.8384796,0,0,29.2,,
WS rotation,winter wheat,2010.11.28,481.8997017,0,0,16,,
WS rotation,winter wheat,2011.03.03,473.278307,10.3,0,153.4,,
WS rotation,winter wheat,2011.03.13,431.5627944,0,0,49.6,,
WS rotation,winter wheat,2011.03.24,447.1825803,0,0,63.5,,
WS rotation,winter wheat,2011.04.04,418.1775762,0.9,0,59.3,,
WS rotation,winter wheat,2011.04.17,527.0760594,0,75,110.5,,
WS rotation,winter wheat,2011.04.30,422.0777576,0,0,77.8,,
WS rotation,winter wheat,2011.05.14,478.7014292,30.7,75,68.4,,
WS rotation,winter wheat,2011.06.09,320.2672169,4.9,0,178.8,,
WS rotation,winter wheat,2011.06.18,340.0610987,19.5,0,65.3,,
WS rotation,winter wheat,2011.11.10,402.5964729,24.3,75,108.1,,
WS rotation,winter wheat,2011.11.19,415.8196932,10.3,0,5.6,,
WS rotation,winter wheat,2011.12.02,482.684441,10.9,0,2.4,,
WS rotation,winter wheat,2012.03.04,438.0523428,0.7,0,127.7,,
WS rotation,winter wheat,2012.04.14,497.6392578,5.6,75,219,,
WS rotation,winter wheat,2012.04.26,503.1202544,18.7,0,48.2,,
WS rotation,winter wheat,2012.05.06,425.1020305,0,0,60.9,,
WS rotation,winter wheat,2012.05.16,440.5851307,0,75,53,,
WS rotation,winter wheat,2012.05.27,391.5755432,0,0,65.2,,
WS rotation,winter wheat,2012.06.06,371.0241171,7.5,0,61.6,,
WS rotation,winter wheat,2012.06.18,452.1349757,0.8,0,143.3,,
WS rotation,winter wheat,2012.10.18,418.3942809,0,0,44.2,,
WS rotation,winter wheat,2012.10.28,470.2061601,0.8,0,39.8,,
WS rotation,winter wheat,2012.11.08,456.5157565,0,75,23.6,,
WS rotation,winter wheat,2012.11.18,469.0343114,0,0,24,,
WS rotation,winter wheat,2012.11.28,438.3481827,0,0,20.4,,
WS rotation,winter wheat,2012.12.08,436.9360773,0.1,0,5.1,,
WS rotation,winter wheat,2013.01.08,433.8485755,8.5,0,28.8,,
WS rotation,winter wheat,2013.02.15,437.758547,14.2,0,21.9,,
WS rotation,winter wheat,2013.03.06,444.7707166,,0,39.8,,
WS rotation,winter wheat,2013.03.16,446.5213164,0.5,0,58.7,,
WS rotation,winter wheat,2013.03.26,429.6336462,0,0,50.1,,
WS rotation,winter wheat,2013.04.06,451.4562122,3,75,72.5,,
WS rotation,winter wheat,2013.04.16,442.8477984,0,0,85.9,,
WS rotation,winter wheat,2013.04.29,412.0718577,26.2,0,62.7,,
WS rotation,winter wheat,2013.05.07,324.7827407,0,75,42.4,,
WS rotation,winter wheat,2013.05.16,419.1361859,0,0,60.1,,
WS rotation,winter wheat,2013.05.29,377.5119605,14.7,0,74.6,,
WS rotation,winter wheat,2013.06.08,387.218911,4.3,0,46.8,,
WS rotation,winter wheat,2013.06.16,358.1483055,32,0,70.8,,
PWS rotation,winter wheat,2003.10.17 ,378.0688336,133.3,0,158.2,,
PWS rotation,winter wheat,2003.11.02,325.9171038,1.9,75,65.4,,
PWS rotation,winter wheat,2003.12.05,340.6732054,44.7,0,42.9,,
PWS rotation,winter wheat,2004.04.17,355.429307,16.7,75,397.9,,
PWS rotation,winter wheat,2004.04.21,325.8170134,0,0,19.9,,
PWS rotation,winter wheat,2004.04.29,360.5047254,21.2,0,27.7,,
PWS rotation,winter wheat,2004.05.10,327.4033338,5,75,50.1,,
PWS rotation,winter wheat,2004.05.20,333.9445464,32.7,0,48.7,,
PWS rotation,winter wheat,2004.05.30,308.5586919,3.7,0,53.2,,
PWS rotation,winter wheat,2004.06.10,270.291368,3.2,0,71,,
PWS rotation,winter wheat,2004.06.21,343.1261561,43.5,0,65.3,,
PWS rotation,winter wheat,2005.10.04,354.1851395,6,0,21.9,,
PWS rotation,winter wheat,2005.11.02,336.403924,2.2,75,120.4,,
PWS rotation,winter wheat,2005.11.10,336.2595606,0,0,26.6,,
PWS rotation,winter wheat,2005.11.21,352.7616642,0,0,15.4,,
PWS rotation,winter wheat,2005.12.04,359.3205308,0,0,38.9,,
PWS rotation,winter wheat,2006.01.05,365.1453866,1,0,43.6,,
PWS rotation,winter wheat,2006.02.05,336.6447587,0.9,0,35.6,,
PWS rotation,winter wheat,2006.03.05,327.0633985,0.4,0,69.7,,
PWS rotation,winter wheat,2006.03.15,335.6542446,0,0,49.8,,
PWS rotation,winter wheat,2006.03.24,320.0949989,0,0,58.9,,
PWS rotation,winter wheat,2006.04.06,334.9602903,0,75,80,,
PWS rotation,winter wheat,2006.04.15,331.4013664,10.5,0,37.7,,
PWS rotation,winter wheat,2006.04.24,293.8740187,0,0,55.1,,
PWS rotation,winter wheat,2006.05.04,302.1625498,0,75,50.2,,
PWS rotation,winter wheat,2006.05.15,277.8704679,12.2,0,53.4,,
PWS rotation,winter wheat,2006.05.24,262.1426349,41.8,0,44.7,,
PWS rotation,winter wheat,2006.06.04,290.9525808,29.5,0,49.6,,
PWS rotation,winter wheat,2006.06.13,303.8451969,24,0,85,,
PWS rotation,winter wheat,2007.10.08 ,473.3531983,64,0,10.1,,
PWS rotation,winter wheat,2007.11.09 ,486.4834783,8.1,75,94.7,,
PWS rotation,winter wheat,2008.03.13 ,443.0088366,4.2,0,246.6,,
PWS rotation,winter wheat,2008.04.15,459.565158,30.3,75,155.2,,
PWS rotation,winter wheat,2008.04.26,435.1410464,26.7,0,51.3,,
PWS rotation,winter wheat,2008.05.06,399.2329232,0.6,75,48,,
PWS rotation,winter wheat,2008.05.16,398.5172931,36.2,0,33.8,,
PWS rotation,winter wheat,2008.05.24,389.9686082,25.1,0,46.4,,
PWS rotation,winter wheat,2008.06.26,386.268795,91,0,202.2,,
PWS rotation,winter wheat,2009.10.03,468.3656242,0,0,47.5,,
PWS rotation,winter wheat,2009.10.13,472.1430737,0,0,39.1,,
PWS rotation,winter wheat,2009.10.23,492.4975653,0,0,71.4,,
PWS rotation,winter wheat,2009.11.04,459.1238035,0.2,75,25.6,,
PWS rotation,winter wheat,2009.11.23,472.1572224,41.1,0,12.7,,
PWS rotation,winter wheat,2009.12.04,485.002152,0,0,6.6,,
PWS rotation,winter wheat,2010.03.05,450.7592965,5.6,0,141.1,,
PWS rotation,winter wheat,2010.03.16,455.8259079,6.2,0,34.1,,
PWS rotation,winter wheat,2010.03.25,478.5832602,0.7,0,47.5,,
PWS rotation,winter wheat,2010.04.07,442.6105754,1.1,75,75.6,,
PWS rotation,winter wheat,2010.04.18,479.7800008,8.6,0,45.3,,
PWS rotation,winter wheat,2010.04.28,438.4346797,3.8,0,49.3,,
PWS rotation,winter wheat,2010.05.08,411.3491596,3.5,75,73.7,,
PWS rotation,winter wheat,2010.05.19,423.1516916,2.3,0,69.3,,
PWS rotation,winter wheat,2010.05.28,354.8019433,1.2,0,55.7,,
PWS rotation,winter wheat,2010.06.08,339.2877972,3.1,0,69.7,,
PWS rotation, winter wheat,2010.06.19,410.6929401,2.3,0,80.5,,
PWS rotation,winter wheat,2011.09.27,463.6657776,0,0,34.5,,
PWS rotation,winter wheat,2011.11.10,414.6009813,24.3,75,108.1,,
PWS rotation,winter wheat,2011.11.19,433.6720568,10.3,0,9.9,,
PWS rotation,winter wheat,2011.12.02,477.6281936,10.9,0,2.4,,
PWS rotation,winter wheat,2012.03.04,446.620833,0.7,0,127.7,,
PWS rotation,winter wheat,2012.04.14,473.1513182,5.6,75,219,,
PWS rotation,winter wheat,2012.04.26,461.7626494,18.7,0,48.2,,
PWS rotation,winter wheat,2012.05.06,400.4907633,0,75,60.9,,
PWS rotation,winter wheat,2012.05.16,416.1199555,0,0,53,,
PWS rotation,winter wheat,2012.05.27,378.6226855,0,0,65.2,,
PWS rotation,winter wheat,2012.06.06,371.2425372,7.5,0,61.6,,
PWS rotation,winter wheat,2012.06.18,399.8978565,0.8,0,143.3,,
RCPWS rotation,winter wheat,2004.10.02,400.991983,5.4,0,27.8,,
RCPWS rotation,winter wheat,2004.10.12,402.563132,0,0,35.3,,
RCPWS rotation,winter wheat,2004.10.22,379.5190627,0,0,39.6,,
RCPWS rotation,winter wheat,2004.11.02,381.6327527,4.2,75,23.5,,
RCPWS rotation,winter wheat,2004.11.11,369.1498994,6.2,0,16,,
RCPWS rotation,winter wheat,2005.01.14,372.8937048,11.9,0,60,,
RCPWS rotation,winter wheat,2005.03.03,357.9498126,8,0,68.7,,
RCPWS rotation,winter wheat,2005.03.14,371.6488935,0,0,35.9,,
RCPWS rotation,winter wheat,2005.03.24,357.4149549,0,0,56.2,,
RCPWS rotation,winter wheat,2005.04.02,341.9920093,0,75,50.7,,
RCPWS rotation,winter wheat,2005.04.13,365.0176809,10.6,0,62.4,,
RCPWS rotation,winter wheat,2005.04.18,352.8889711,0,0,28.5,,
RCPWS rotation,winter wheat,2005.04.23,331.3615912,0,0,34.6,,
RCPWS rotation,winter wheat,2005.05.03,323.6531161,0,75,63.1,,
RCPWS rotation,winter wheat,2005.05.13,277.1984885,29.7,0,54.2,,
RCPWS rotation,winter wheat,2005.05.23,319.9916041,32.5,0,53.2,,
RCPWS rotation,winter wheat,2005.06.03,263.8425994,1.1,0,67,,
RCPWS rotation,winter wheat,2005.06.13,262.382649,10,0,71.2,,
RCPWS rotation,winter wheat,2007.10.08 ,504.6133967,64,0,10.1,,
RCPWS rotation,winter wheat,2007.11.09 ,478.715557,8.1,75,94.7,,
RCPWS rotation,winter wheat,2008.03.13 ,454.4154966,4.2,0,246.6,,
RCPWS rotation,winter wheat,2008.04.15,471.0011174,30.3,75,155.2,,
RCPWS rotation,winter wheat,2008.04.26,449.2527291,26.7,0,51.3,,
RCPWS rotation,winter wheat,2008.05.06,407.3400466,0.6,75,48,,
RCPWS rotation,winter wheat,2008.05.16,413.5424589,36.2,0,33.8,,
RCPWS rotation,winter wheat,2008.05.24,403.9253068,25.1,0,46.4,,
RCPWS rotation,winter wheat,2008.06.26,339.4698029,91,0,202.2,,
RCPWS rotation,winter wheat,2010.10.07,425.3172129,0.3,0,55.3,,
RCPWS rotation,winter wheat,2010.10.17,445.0265748,0,0,41.7,,
RCPWS rotation,winter wheat,2010.10.26,483.0263518,4.1,0,12.6,,
RCPWS rotation,winter wheat,2010.11.07,455.8873404,0,75,39.6,,
RCPWS rotation,winter wheat,2010.11.19,470.5843034,0,0,29.2,,
RCPWS rotation,winter wheat,2010.11.28,467.03844,0,0,16,,
RCPWS rotation,winter wheat,2011.03.03,451.3406988,10.3,0,153.4,,
RCPWS rotation,winter wheat,2011.03.13,434.696831,0,0,49.6,,
RCPWS rotation,winter wheat,2011.03.24,424.0512145,0,0,63.5,,
RCPWS rotation,winter wheat,2011.04.04,411.4637378,0.9,75,59.3,,
RCPWS rotation,winter wheat,2011.04.17,527.6265178,0,0,110.5,,
RCPWS rotation,winter wheat,2011.04.30,416.0212979,0,0,77.8,,
RCPWS rotation,winter wheat,2011.05.14,462.6989725,30.7,75,68.4,,
RCPWS rotation,winter wheat,2011.06.09,289.3922867,7.7,0,178.8,,
RCPWS rotation,winter wheat,2011.06.18,288.9345961,19.5,0,65.3,,
